Location: Karcze
(52.0945°N, 22.4786°E)
Time: 08:06:58
(UTC+00:00)

Altair - All Passes

Search period start: 24 July 2021 00:00
Search period end: 03 August 2021 00:00
Orbit: 1501 x 1682 km, 47.2° (Epoch: 23 July)

Date Brightness Start Highest point End Pass type
(mag) Time Alt. Az. Time Alt. Az. Time Alt. Az.
24 Jul - 01:17:37 10° S 01:24:44 26° SE 01:31:47 10° E visible
24 Jul - 03:19:03 10° SW 03:27:55 53° SSE 03:36:43 10° E daylight
24 Jul - 05:22:51 10° W 05:31:54 66° S 05:41:01 10° ESE daylight
24 Jul - 07:27:10 10° W 07:35:48 48° SSW 07:44:33 10° SE daylight
24 Jul - 09:32:32 10° W 09:38:44 21° SW 09:45:03 10° S daylight
25 Jul - 00:52:51 10° S 00:59:43 24° SE 01:06:30 10° E visible
25 Jul - 02:54:00 10° SW 03:02:49 51° SSE 03:11:34 10° E daylight
25 Jul - 04:57:42 10° W 05:06:46 66° S 05:15:52 10° ESE daylight
25 Jul - 07:02:01 10° W 07:10:42 50° SSW 07:19:31 10° SE daylight
25 Jul - 09:07:12 10° W 09:13:44 22° SW 09:20:22 10° S daylight
26 Jul - 00:28:07 10° S 00:34:43 22° SE 00:41:13 10° E visible
26 Jul - 02:28:57 10° SW 02:37:44 50° SSE 02:46:25 10° E daylight
26 Jul - 04:32:34 10° WSW 04:41:39 66° S 04:50:44 10° E daylight
26 Jul - 06:36:52 10° W 06:45:37 52° SSW 06:54:27 10° SE daylight
26 Jul - 08:41:54 10° W 08:48:43 24° SW 08:55:38 10° S daylight
27 Jul - 00:03:26 10° S 00:09:42 20° SE 00:15:52 10° E visible
27 Jul - 02:03:54 10° SW 02:12:38 48° SSE 02:21:16 10° E visible
27 Jul - 04:07:26 10° WSW 04:16:32 66° S 04:25:35 10° E daylight
27 Jul - 06:11:43 10° W 06:20:31 54° SSW 06:29:23 10° SE daylight
27 Jul - 08:16:38 10° W 08:23:42 26° SW 08:30:52 10° S daylight
27 Jul - 23:38:49 10° S 23:44:42 19° SE 23:50:30 10° E visible
28 Jul - 01:38:53 10° SW 01:47:34 46° SSE 01:56:06 10° E visible
28 Jul - 03:42:18 10° WSW 03:51:24 66° S 04:00:27 10° E daylight
28 Jul - 05:46:34 10° W 05:55:25 55° SSW 06:04:19 10° SE daylight
28 Jul - 07:51:22 10° W 07:58:41 28° SW 08:06:04 10° SSE daylight
28 Jul - 23:14:16 10° SSE 23:19:43 17° SE 23:25:05 10° E visible
29 Jul - 01:13:52 10° SW 01:22:29 44° SSE 01:30:57 10° E visible
29 Jul - 03:17:10 10° WSW 03:26:17 65° S 03:35:19 10° E daylight
29 Jul - 05:21:24 10° W 05:30:19 57° SSW 05:39:14 10° ESE daylight
29 Jul - 07:26:09 10° W 07:33:39 29° SW 07:41:13 10° SSE daylight
29 Jul - 22:49:47 10° SSE 22:54:44 16° SE 22:59:35 10° E visible
30 Jul - 00:48:52 10° SW 00:57:24 41° SSE 01:05:47 10° E visible
30 Jul - 02:52:02 10° WSW 03:01:09 64° S 03:10:10 10° E daylight
30 Jul - 04:56:16 10° W 05:05:12 59° SSW 05:14:09 10° ESE daylight
30 Jul - 07:00:56 10° W 07:08:37 31° SW 07:16:22 10° SSE daylight
30 Jul - 22:25:25 10° SSE 22:29:44 14° SE 22:34:00 10° E visible
31 Jul - 00:23:53 10° SSW 00:32:20 39° SSE 00:40:37 10° E visible
31 Jul - 02:26:54 10° WSW 02:36:02 64° S 02:45:02 10° E daylight
31 Jul - 04:31:07 10° W 04:40:06 60° SSW 04:49:03 10° ESE daylight
31 Jul - 06:35:43 10° W 06:43:34 33° SW 06:51:29 10° SSE daylight
31 Jul - 22:01:15 10° SSE 22:04:46 13° SE 22:08:14 10° ESE visible
31 Jul - 23:58:55 10° SSW 00:07:16 37° SE 00:15:26 10° E visible
01 Aug - 02:01:46 10° WSW 02:10:55 63° SSE 02:19:54 10° E visible
01 Aug - 04:05:58 10° W 04:14:59 61° SSW 04:23:57 10° ESE daylight
01 Aug - 06:10:31 10° W 06:18:32 35° SW 06:26:35 10° SSE daylight
01 Aug - 08:18:46 10° WSW 08:20:53 11° SW 08:23:01 10° SW daylight
01 Aug - 21:37:25 10° SE 21:39:47 11° SE 21:42:09 10° ESE visible
01 Aug - 23:33:58 10° SSW 23:42:13 35° SE 23:50:15 10° E visible
02 Aug - 01:36:38 10° WSW 01:45:47 61° SSE 01:54:46 10° E visible
02 Aug - 03:40:48 10° W 03:49:52 63° S 03:58:51 10° ESE daylight
02 Aug - 05:45:19 10° W 05:53:28 37° SW 06:01:39 10° SSE daylight
02 Aug - 07:52:36 10° WSW 07:55:56 12° SW 07:59:16 10° SSW daylight
02 Aug - 23:09:02 10° SSW 23:17:09 33° SE 23:25:04 10° E visible
